COSMOS 2460 (732)

Last updated on Thu Nov 21 2024 00:03:11 GMT+0000 (Coordinated Universal Time)

1 36402U 10007C 24325.37864249 -.00000054 00000+0 00000+0 0 9990 2 36402 65.7260 333.8152 0002995 264.1153 189.7556 2.13106229114503
UTC large
Height (km)
Speed (km/s)
/
Latitude / Longitude
Inclination (degrees)
Orbital Period (minutes)
Azimuth
Elevation
Range (km)
Doppler Factor

Next 0 passes for location: London (51.5072 / 0.1276)

Sorry there are no passes over London.